FW4689 Weather Reports


Display with metric or nautical units.
time (UTC)temp
F
wind
direction
speed
MPH
gust
MPH
rain 1hr
in
rain 24hr
in
rain mn
in
humidity
%
barometer
mb
20260507024545 62 146 1.0 3.0 0.00 0.00 0.00 76 1016.0
20260507023028 63 144 2.0 4.0 0.00 0.00 0.00 74 1015.8
20260507021544 64 145 2.0 4.0 0.00 0.00 0.00 72 1015.7
20260507020024 65 160 3.0 5.0 0.00 0.00 0.00 70 1015.5
20260507014534 66 143 2.0 5.0 0.00 0.00 0.00 68 1015.5
20260507013030 66 144 3.0 6.0 0.00 0.00 0.00 67 1015.6
20260507011559 66 191 3.0 6.0 0.00 0.00 0.00 65 1015.6
20260507010114 67 185 4.0 6.0 0.00 0.00 0.00 65 1015.8
20260507004518 67 206 3.0 7.0 0.00 0.00 0.00 64 1015.7
20260507003026 67 168 4.0 9.0 0.00 0.00 0.00 63 1015.6
20260507001528 67 161 5.0 8.0 0.00 0.00 0.00 63 1015.6
20260507000014 68 149 6.0 11.0 0.00 0.00 0.00 63 1015.7
20260506234526 68 147 5.0 10.0 0.00 0.00 0.00 63 1015.5
20260506233011 68 110 4.0 8.0 0.00 0.00 0.00 64 1015.6
20260506231522 68 143 7.0 12.0 0.00 0.00 0.00 62 1015.8
20260506230028 70 131 7.0 12.0 0.00 0.00 0.00 60 1015.7
20260506224526 70 127 4.0 10.0 0.00 0.00 0.00 60 1015.8
20260506223029 70 189 5.0 10.0 0.00 0.00 0.00 60 1016.2
20260506221518 70 177 7.0 12.0 0.00 0.00 0.00 59 1016.4
20260506220024 71 164 5.0 12.0 0.00 0.00 0.00 59 1016.4
20260506214532 71 149 6.0 11.0 0.00 0.00 0.00 59 1016.8
20260506213020 70 110 3.0 8.0 0.00 0.00 0.00 61 1016.9
20260506211528 69 233 2.0 15.0 0.00 0.00 0.00 64 1017.1
20260506210031 70 204 6.0 10.0 0.00 0.00 0.00 63 1017.1
20260506204524 70 190 1.0 9.0 0.00 0.00 0.00 65 1017.2
20260506203026 69 175 4.0 14.0 0.00 0.00 0.00 66 1017.3
20260506201528 69 169 6.0 12.0 0.00 0.00 0.00 65 1017.7
20260506200017 68 179 7.0 12.0 0.00 0.00 0.00 66 1017.5
20260506194530 68 134 8.0 15.0 0.00 0.00 0.00 66 1017.6
20260506193031 68 141 8.0 15.0 0.00 0.00 0.00 66 1017.6
20260506191516 68 160 7.0 13.0 0.00 0.00 0.00 66 1017.8
20260506190019 68 150 8.0 12.0 0.00 0.00 0.00 65 1017.9
20260506184623 68 146 7.0 13.0 0.00 0.00 0.00 62 1018.0
20260506183017 68 94 7.0 12.0 0.00 0.00 0.00 60 1018.0
20260506181520 67 139 9.0 14.0 0.00 0.00 0.00 61 1018.2
20260506180031 67 141 3.0 10.0 0.00 0.00 0.00 61 1018.3
20260506174533 66 86 1.0 10.0 0.00 0.00 0.00 62 1018.2
20260506173019 65 101 2.0 10.0 0.00 0.00 0.00 62 1018.3
20260506171523 65 118 3.0 7.0 0.00 0.00 0.00 62 1018.2
20260506170028 64 91 0.0 7.0 0.00 0.00 0.00 64 1018.2
20260506164515 63 127 2.0 7.0 0.00 0.00 0.00 65 1018.2
20260506163023 62 108 3.0 8.0 0.00 0.00 0.00 66 1018.4
20260506161530 61 147 2.0 5.0 0.00 0.00 0.00 69 1018.5
20260506160018 60 102 2.0 4.0 0.00 0.00 0.00 71 1018.3
20260506154504 58 99 2.0 4.0 0.00 0.00 0.00 75 1018.3
20260506153029 56 85 2.0 4.0 0.00 0.00 0.00 79 1018.4
20260506151520 55 77 1.0 3.0 0.00 0.00 0.00 82 1018.4
20260506150004 53 75 1.0 3.0 0.00 0.00 0.00 86 1018.2
20260506144536 52 50 1.0 2.0 0.00 0.00 0.00 91 1018.1
20260506143023 50 324 0.0 2.0 0.00 0.00 0.00 93 1018.0
20260506141527 48 322 1.0 3.0 0.00 0.00 0.00 92 1017.9
20260506140117 48 324 1.0 3.0 0.00 0.00 0.00 92 1017.8
20260506134515 47 325 0.0 3.0 0.00 0.00 0.00 92 1017.7
20260506133022 47 326 0.0 2.0 0.00 0.00 0.00 92 1017.7
20260506131541 47 326 0.0 2.0 0.00 0.00 0.00 92 1017.6
20260506130036 47 327 0.0 1.0 0.00 0.00 0.00 92 1017.5
20260506124517 47 324 2.0 3.0 0.00 0.00 0.00 92 1017.5
20260506123037 47 316 1.0 3.0 0.00 0.00 0.00 92 1017.4
20260506121513 47 314 0.0 3.0 0.00 0.00 0.00 92 1017.3
20260506120024 47 314 0.0 2.0 0.00 0.00 0.00 92 1017.2
20260506114525 47 314 1.0 2.0 0.00 0.00 0.00 92 1017.2
20260506113034 47 314 1.0 3.0 0.00 0.00 0.00 92 1017.2
20260506111534 47 314 0.0 0.0 0.00 0.00 0.00 92 1017.0
20260506110020 48 314 1.0 2.0 0.00 0.00 0.00 92 1017.1
20260506104530 48 314 2.0 3.0 0.00 0.00 0.00 92 1017.1
20260506103032 48 314 2.0 3.0 0.00 0.00 0.00 92 1017.0
20260506101526 48 314 2.0 4.0 0.00 0.00 0.00 92 1017.0
20260506100027 48 316 1.0 3.0 0.00 0.00 0.00 92 1017.0
20260506094534 48 318 2.0 4.0 0.00 0.00 0.00 92 1017.2
20260506093031 48 318 1.0 4.0 0.00 0.00 0.00 92 1017.2
20260506091530 48 320 1.0 4.0 0.00 0.00 0.00 92 1017.4
20260506090015 49 324 2.0 4.0 0.00 0.00 0.00 92 1017.6
20260506084523 49 4 2.0 4.0 0.00 0.00 0.00 92 1017.3
20260506083031 49 4 1.0 4.0 0.00 0.00 0.00 92 1017.6
20260506081529 49 22 1.0 3.0 0.00 0.00 0.00 91 1017.5
20260506073032 49 4 0.0 2.0 0.00 0.00 0.00 91 1017.4
20260506071522 50 4 0.0 3.0 0.00 0.00 0.00 91 1017.3
20260506061528 51 9 2.0 4.0 0.00 0.00 0.00 90 1016.7
20260506044531 53 109 0.0 2.0 0.00 0.00 0.00 88 1016.0
20260506043026 53 109 0.0 3.0 0.00 0.00 0.00 88 1015.8
20260506041517 53 109 0.0 3.0 0.00 0.00 0.00 88 1015.7
20260506040023 54 109 0.0 2.0 0.00 0.00 0.00 87 1015.4
20260506034525 55 109 0.0 2.0 0.00 0.00 0.00 86 1015.2
20260506033020 55 110 0.0 0.0 0.00 0.00 0.00 86 1014.9
20260506031532 56 110 0.0 0.0 0.00 0.00 0.00 85 1014.6
20260506030026 57 111 2.0 3.0 0.00 0.00 0.00 83 1014.4